THY2126 LTFM-LTAC

Flight info

Callsign THY2126
Flight time N/A
Altitude 27000
Route VICEN1E/36 VICEN T380 ASMAP L333 LATGA
Aircraft B738/M-VGD/A

Departure

Time 2026-05-06 13:15
Airport İstanbul Airport (LTFM)

Arrival

Time N/A
Airport Esenboğa International Airport (LTAC)
Time Latitude Longitude Altitude Speed Heading
2026-05-06 12:42 41.26508 28.74957 334 ft 0 kts 288°
2026-05-06 13:03 41.26507 28.74960 334 ft 2 kts 288°
2026-05-06 13:03 41.26503 28.74979 334 ft 2 kts 288°
2026-05-06 13:03 41.26498 28.74998 334 ft 2 kts 288°
2026-05-06 13:04 41.26495 28.75010 334 ft 1 kts 288°
2026-05-06 13:04 41.26492 28.75029 334 ft 2 kts 271°
2026-05-06 13:04 41.26494 28.75049 334 ft 2 kts 258°
2026-05-06 13:04 41.26498 28.75068 334 ft 2 kts 243°
2026-05-06 13:05 41.26506 28.75084 334 ft 2 kts 228°
2026-05-06 13:05 41.26518 28.75097 334 ft 2 kts 213°
2026-05-06 13:05 41.26530 28.75106 334 ft 0 kts 200°
2026-05-06 13:05 41.26536 28.75108 334 ft 0 kts 197°
2026-05-06 13:07 41.26519 28.75101 334 ft 6 kts 197°
2026-05-06 13:08 41.26466 28.75079 334 ft 7 kts 197°
2026-05-06 13:08 41.26417 28.75059 334 ft 6 kts 197°
2026-05-06 13:08 41.26376 28.75042 334 ft 5 kts 197°
2026-05-06 13:08 41.26342 28.75028 334 ft 4 kts 197°
2026-05-06 13:09 41.26302 28.75012 334 ft 7 kts 197°
2026-05-06 13:09 41.26250 28.75012 334 ft 9 kts 152°
2026-05-06 13:09 41.26229 28.75105 334 ft 12 kts 89°
2026-05-06 13:09 41.26231 28.75214 334 ft 11 kts 89°
2026-05-06 13:10 41.26232 28.75310 334 ft 9 kts 90°
2026-05-06 13:10 41.26232 28.75379 334 ft 5 kts 89°
2026-05-06 13:10 41.26233 28.75425 334 ft 4 kts 89°
2026-05-06 13:10 41.26233 28.75442 334 ft 1 kts 90°
2026-05-06 13:11 41.26233 28.75452 334 ft 0 kts 89°
2026-05-06 13:12 41.26233 28.75457 334 ft 1 kts 89°
2026-05-06 13:13 41.26233 28.75481 334 ft 3 kts 89°
2026-05-06 13:13 41.26234 28.75525 334 ft 5 kts 89°
2026-05-06 13:13 41.26234 28.75576 334 ft 5 kts 89°
2026-05-06 13:13 41.26236 28.75627 334 ft 4 kts 87°
2026-05-06 13:14 41.26253 28.75664 334 ft 5 kts 25°
2026-05-06 13:14 41.26341 28.75670 334 ft 35 kts
2026-05-06 13:14 41.26842 28.75659 334 ft 106 kts 360°
2026-05-06 13:14 41.27787 28.75640 336 ft 163 kts
2026-05-06 13:15 41.28948 28.75571 914 ft 168 kts 360°
2026-05-06 13:15 41.30059 28.75743 1657 ft 167 kts 28°
2026-05-06 13:15 41.30897 28.76835 2175 ft 176 kts 53°
2026-05-06 13:15 41.31806 28.77976 2548 ft 193 kts 29°
2026-05-06 13:16 41.33073 28.78772 3016 ft 208 kts 24°
2026-05-06 13:16 41.34438 28.79657 3440 ft 228 kts 27°
2026-05-06 13:16 41.35856 28.80682 4038 ft 240 kts 28°
2026-05-06 13:16 41.37249 28.81996 4599 ft 254 kts 44°
2026-05-06 13:17 41.38184 28.84023 5302 ft 266 kts 71°
2026-05-06 13:17 41.38413 28.86459 6060 ft 274 kts 85°
2026-05-06 13:17 41.38178 28.89000 6814 ft 283 kts 105°
2026-05-06 13:17 41.37259 28.91315 7574 ft 291 kts 125°
2026-05-06 13:18 41.35833 28.93230 8275 ft 299 kts 140°
2026-05-06 13:18 41.33977 28.94548 9014 ft 306 kts 162°
2026-05-06 13:18 41.31877 28.94924 9671 ft 312 kts 178°
2026-05-06 13:18 41.29686 28.94938 10410 ft 314 kts 180°
2026-05-06 13:19 41.27521 28.94916 11115 ft 317 kts 180°
2026-05-06 13:19 41.25310 28.94905 11825 ft 321 kts 181°
2026-05-06 13:19 41.23056 28.94793 12559 ft 324 kts 184°
2026-05-06 13:19 41.20812 28.94571 13268 ft 328 kts 185°
2026-05-06 13:20 41.18552 28.94317 13977 ft 331 kts 186°
2026-05-06 13:20 41.16232 28.94061 14728 ft 334 kts 185°
2026-05-06 13:20 41.13908 28.93822 15423 ft 338 kts 185°
2026-05-06 13:20 41.11565 28.93594 16156 ft 340 kts 185°
2026-05-06 13:21 41.09211 28.93372 16843 ft 343 kts 185°
2026-05-06 13:21 41.06836 28.93149 17540 ft 346 kts 185°
2026-05-06 13:21 41.04407 28.92922 18183 ft 350 kts 185°
2026-05-06 13:21 41.01962 28.92694 18813 ft 354 kts 186°
2026-05-06 13:22 40.99514 28.92434 19463 ft 357 kts 186°
2026-05-06 13:22 40.97042 28.92131 20063 ft 361 kts 187°
2026-05-06 13:22 40.94524 28.91803 20663 ft 365 kts 187°
2026-05-06 13:22 40.92011 28.91474 21306 ft 367 kts 187°
2026-05-06 13:23 40.89459 28.91148 21815 ft 372 kts 187°
2026-05-06 13:23 40.86849 28.90941 22424 ft 375 kts 182°
2026-05-06 13:23 40.84237 28.90990 22962 ft 379 kts 179°
2026-05-06 13:23 40.81603 28.91182 23469 ft 383 kts 177°
2026-05-06 13:24 40.78960 28.91428 23983 ft 386 kts 177°
2026-05-06 13:24 40.76255 28.91688 24485 ft 389 kts 177°
2026-05-06 13:24 40.73574 28.91967 24966 ft 392 kts 175°
2026-05-06 13:24 40.70865 28.92642 25462 ft 396 kts 165°
2026-05-06 13:25 40.68304 28.93822 26087 ft 394 kts 157°
2026-05-06 13:25 40.65865 28.95441 26619 ft 393 kts 148°
2026-05-06 13:25 40.63640 28.97526 27023 ft 395 kts 138°
2026-05-06 13:25 40.61664 29.00085 27061 ft 404 kts 128°
2026-05-06 13:26 40.59947 29.03061 27069 ft 414 kts 121°
2026-05-06 13:26 40.58523 29.06386 27069 ft 423 kts 111°
2026-05-06 13:26 40.57538 29.10057 27068 ft 430 kts 100°
2026-05-06 13:26 40.57029 29.13963 27068 ft 438 kts 91°
2026-05-06 13:27 40.56899 29.17965 27071 ft 443 kts 85°
2026-05-06 13:27 40.57031 29.22041 27070 ft 443 kts 82°
2026-05-06 13:27 40.57296 29.26051 27066 ft 439 kts 80°
2026-05-06 13:27 40.57613 29.29996 27076 ft 437 kts 79°
2026-05-06 13:28 40.57948 29.33963 27072 ft 435 kts 79°
2026-05-06 13:28 40.58273 29.37886 27082 ft 437 kts 80°
2026-05-06 13:28 40.58588 29.41871 27075 ft 435 kts 80°
2026-05-06 13:28 40.58907 29.45825 27076 ft 435 kts 79°
2026-05-06 13:29 40.59264 29.49757 27073 ft 435 kts 78°
2026-05-06 13:29 40.59643 29.53656 27075 ft 436 kts 78°
2026-05-06 13:29 40.60033 29.57610 27073 ft 434 kts 78°
2026-05-06 13:29 40.60418 29.61547 27072 ft 434 kts 79°
2026-05-06 13:30 40.60794 29.65454 27077 ft 434 kts 79°
2026-05-06 13:30 40.61166 29.69390 27073 ft 434 kts 80°
2026-05-06 13:30 40.61533 29.73332 27075 ft 434 kts 80°
2026-05-06 13:30 40.61896 29.77264 27072 ft 433 kts 80°
2026-05-06 13:31 40.62255 29.81196 27078 ft 432 kts 80°
2026-05-06 13:31 40.62611 29.85116 27076 ft 433 kts 80°
2026-05-06 13:31 40.62961 29.89001 27077 ft 432 kts 80°
2026-05-06 13:31 40.63312 29.92924 27079 ft 433 kts 80°
2026-05-06 13:32 40.63664 29.96858 27081 ft 433 kts 81°
2026-05-06 13:32 40.63896 29.99467 27081 ft 432 kts 81°
2026-05-06 13:32 40.63979 30.00408 27079 ft 432 kts 81°